Location: Casteau
(50.5142°N, 4.0161°E)
Time: 19:02:50
(UTC+00:00)

Transit 2A - Pass Details

Date: 30 July 2021
Orbit: 594 x 964 km, 66.7° (Epoch: 27 September)

Event Time Altitude Azimuth Distance (km) Brightness Sun altitude
Rises 16:45:39 0° 307° (NW) 3,284 10.1 24.3°
Reaches altitude 10° 16:49:27 10° 280° (W) 2,437 10.5 23.7°
Maximum altitude 16:51:46 13° 256° (WSW) 2,297 10.3 23.3°
Drops below altitude 10° 16:54:09 10° 231° (SW) 2,529 9.6 22.9°
Sets 16:58:18 0° 205° (SSW) 3,536 9.7 22.3°
